(337355) = 2001 OQ110

Discovered at Haleakala on 2001-07-26 by NEAT.

Orbit

Orbit type: Main Belt

Note: WebGL enabled browser required.

epoch2023-09-13.0
epoch JD2460200.5
perihelion date2022-12-04.33861
perihelion JD2459917.83861
argument of perihelion (°)70.47158
ascending node (°)243.24837
inclination (°)1.30103
eccentricity0.2276041
perihelion distance (AU)1.7991189
Tisserand w.r.t. Jupiter3.5
ΔV w.r.t. Earth (km/sec)8.3
semimajor axis (AU)2.3292704
mean anomaly (°)78.36831
mean daily motion (°/day)0.27725160
aphelion distance (AU)2.859
period (years)3.55
P-vector [x]0.69091714
P-vector [y]-0.67150042
P-vector [z]-0.26780718
Q-vector [x]0.72264959
Q-vector [y]0.63111968
Q-vector [z]0.28189631
absolute magnitude18.15
phase slope0.15
uncertainty0
referenceMPEC 2024-A12
observations used187
oppositions11
arc length (days)9737
first opposition used1997
last opposition used2024
residual rms (arc-secs)0.75
perturbers coarse indicatorM-v
perturbers precise indicator003Ek
first observation date used1997-05-05.0
last observation date used2024-01-01.0
computer nameMPCLINUX
Minimum Orbit Intersection Distances (in AU)
for orbit epoch: 2460200.5, reference: E2024-A12
Mercury1.37267
Venus1.07397
Earth0.78509
Mars0.4113
Jupiter2.41947
Saturn6.27778
Uranus15.6434
Neptune27.3773

Observations

187 total observations over interval: 1997 05 05.26326 – 2024 01 01.281196
These data are available for download (format description).

Date (UT) J2000 RA J2000 Dec Magn Location Ref
1997 05 05.26326 13 52 58.35 -12 42 52.4 21.1 V 691 – Steward Observatory, Kitt Peak-Spacewatch MPS 178249
1997 05 05.28552 13 52 56.99 -12 42 43.4 21.1 V 691 – Steward Observatory, Kitt Peak-Spacewatch MPS 178249
1997 05 05.30763 13 52 55.66 -12 42 35.6 21.2 V 691 – Steward Observatory, Kitt Peak-Spacewatch MPS 178249
2001 07 26.57522 21 18 41.59 -12 51 53.4 20.4   608 – Haleakala-AMOS MPS 61147
2001 07 26.58588 21 18 41.16 -12 51 55.1 20.6   608 – Haleakala-AMOS MPS 61147
2001 07 26.59709 21 18 40.59 -12 51 56.6 21.0   608 – Haleakala-AMOS MPS 61147
2001 07 27.31123 21 18 11.80 -12 53 30.5 19.1 R 699 – Lowell Observatory-LONEOS MPS 61147
2001 07 27.33621 21 18 10.69 -12 53 34.0   699 – Lowell Observatory-LONEOS MPS 61147
2001 07 27.36123 21 18 09.57 -12 53 38.2   699 – Lowell Observatory-LONEOS MPS 61147
2001 07 27.38635 21 18 08.39 -12 53 41.2   699 – Lowell Observatory-LONEOS MPS 61147
2001 08 16.23042 21 02 51.93 -13 52 19.9 19.7   704 – Lincoln Laboratory ETS, New Mexico MPS 61147
2001 08 16.24290 21 02 51.32 -13 52 22.6 19.2   704 – Lincoln Laboratory ETS, New Mexico MPS 61147
2001 08 16.25539 21 02 50.75 -13 52 24.6 19.9   704 – Lincoln Laboratory ETS, New Mexico MPS 61147
2001 08 24.20232 20 57 36.96 -14 16 44.3 19.6 R 699 – Lowell Observatory-LONEOS MPS 61147
2001 08 24.22819 20 57 35.92 -14 16 50.2   699 – Lowell Observatory-LONEOS MPS 61147
2001 08 24.25408 20 57 34.98 -14 16 54.1   699 – Lowell Observatory-LONEOS MPS 61147
2001 08 24.27979 20 57 33.93 -14 16 58.8   699 – Lowell Observatory-LONEOS MPS 61147
2001 09 22.10246 20 55 04.11 -14 53 32.0 21.2 V 691 – Steward Observatory, Kitt Peak-Spacewatch MPS 61147
2001 09 22.12514 20 55 04.63 -14 53 31.1 21.0 V 691 – Steward Observatory, Kitt Peak-Spacewatch MPS 61147
2001 09 22.14747 20 55 05.14 -14 53 30.3 21.1 V 691 – Steward Observatory, Kitt Peak-Spacewatch MPS 61147
2005 10 26.33251 03 43 54.92 +20 24 04.4 20.8 V 691 – Steward Observatory, Kitt Peak-Spacewatch MPS 147247
2005 10 26.34978 03 43 53.92 +20 24 00.9 21.1 V 691 – Steward Observatory, Kitt Peak-Spacewatch MPS 147247
2005 10 26.36705 03 43 52.94 +20 23 57.7 20.9 V 691 – Steward Observatory, Kitt Peak-Spacewatch MPS 147247
2005 10 27.36095 03 42 57.70 +20 20 25.3 20.9 V G96 – Mt. Lemmon Survey MPS 147247
2005 10 27.36768 03 42 57.31 +20 20 23.8 20.6 V G96 – Mt. Lemmon Survey MPS 147247
2005 10 27.37461 03 42 56.88 +20 20 22.1 21.2 V G96 – Mt. Lemmon Survey MPS 147247
2005 10 27.38147 03 42 56.44 +20 20 21.2 20.9 V G96 – Mt. Lemmon Survey MPS 147247
2005 10 30.33879 03 40 04.29 +20 09 16.2 21.0 V 691 – Steward Observatory, Kitt Peak-Spacewatch MPS 147247
2005 10 30.35608 03 40 03.19 +20 09 12.6 21.0 V 691 – Steward Observatory, Kitt Peak-Spacewatch MPS 147247
2005 10 30.37339 03 40 02.12 +20 09 08.1 20.8 V 691 – Steward Observatory, Kitt Peak-Spacewatch MPS 147247
2005 11 11.22943 03 27 14.18 +19 17 23.5 21.2 V 691 – Steward Observatory, Kitt Peak-Spacewatch MPS 149227
2005 11 11.25478 03 27 12.41 +19 17 16.9 20.9 V 691 – Steward Observatory, Kitt Peak-Spacewatch MPS 149227
2005 11 11.28007 03 27 10.67 +19 17 09.6 20.7 V 691 – Steward Observatory, Kitt Peak-Spacewatch MPS 149227
2005 11 25.30814 03 12 05.83 +18 10 32.5 20.8 V G96 – Mt. Lemmon Survey MPS 151848
2005 11 25.31703 03 12 05.29 +18 10 29.7 20.8 V G96 – Mt. Lemmon Survey MPS 151848
2005 11 25.32527 03 12 04.78 +18 10 28.0 20.8 V G96 – Mt. Lemmon Survey MPS 151848
2005 11 25.33319 03 12 04.32 +18 10 25.5 21.0 V G96 – Mt. Lemmon Survey MPS 151848
2005 12 02.22362 03 05 49.16 +17 40 32.4 21.0 V G96 – Mt. Lemmon Survey MPS 153435
2005 12 02.23298 03 05 48.69 +17 40 29.6 21.0 V G96 – Mt. Lemmon Survey MPS 153435
2005 12 02.24207 03 05 48.19 +17 40 28.0 20.8 V G96 – Mt. Lemmon Survey MPS 153435
2005 12 02.25124 03 05 47.72 +17 40 26.0 22.1 V G96 – Mt. Lemmon Survey MPS 153435
2007 03 14.25122 09 29 49.84 +12 47 49.9 22.0 V G96 – Mt. Lemmon Survey MPS 202888
2007 03 14.25924 09 29 49.45 +12 47 51.6 22.4 V G96 – Mt. Lemmon Survey MPS 202888
2007 03 14.26730 09 29 49.09 +12 47 53.4 22.7 V G96 – Mt. Lemmon Survey MPS 202888
2007 03 14.27535 09 29 48.76 +12 47 55.2 21.8 V G96 – Mt. Lemmon Survey MPS 202888
2012 08 28.37856 02 39 32.97 +17 01 05.6 22.1 V G96 – Mt. Lemmon Survey MPS 430021
2012 08 28.38793 02 39 33.33 +17 01 06.2 20.6 V G96 – Mt. Lemmon Survey MPS 430021
2012 08 28.39727 02 39 33.62 +17 01 09.0 20.6 V G96 – Mt. Lemmon Survey MPS 430021
2012 08 28.40662 02 39 33.87 +17 01 10.0 21.2 V G96 – Mt. Lemmon Survey MPS 430021
2012 09 19.38550 02 44 03.04 +17 21 36.7 20.8 V G96 – Mt. Lemmon Survey MPS 431838
2012 09 19.39589 02 44 02.90 +17 21 36.2 20.9 V G96 – Mt. Lemmon Survey MPS 431838
2012 09 19.40637 02 44 02.76 +17 21 35.5 21.0 V G96 – Mt. Lemmon Survey MPS 431838
2012 09 19.41677 02 44 02.61 +17 21 35.1 21.3 V G96 – Mt. Lemmon Survey MPS 431838
2012 10 06.42650 02 35 38.90 +16 38 39.5 20.2 V G96 – Mt. Lemmon Survey MPS 434078
2012 10 06.43508 02 35 38.47 +16 38 37.7 20.3 V G96 – Mt. Lemmon Survey MPS 434078
2012 10 06.44369 02 35 38.07 +16 38 35.8 20.2 V G96 – Mt. Lemmon Survey MPS 434078
2012 10 06.45226 02 35 37.64 +16 38 33.5 20.3 V G96 – Mt. Lemmon Survey MPS 434078
2012 11 02.322887 02 09 33.935 +14 11 44.57 20.0 i F51 – Pan-STARRS 1, Haleakala MPS 441572
2012 11 02.324213 02 09 33.846 +14 11 44.17 19.9 i F51 – Pan-STARRS 1, Haleakala MPS 441572
2012 11 02.335040 02 09 33.167 +14 11 40.13 20.0 i F51 – Pan-STARRS 1, Haleakala MPS 441572
2012 11 02.336360 02 09 33.089 +14 11 39.61 19.9 i F51 – Pan-STARRS 1, Haleakala MPS 441572
2015 05 20.44216 17 00 20.529 -22 32 33.77 20.2 w F51 – Pan-STARRS 1, Haleakala MPS 608446
2015 05 20.46639 17 00 19.319 -22 32 30.84 20.2 w F51 – Pan-STARRS 1, Haleakala MPS 608446
2015 05 20.47847 17 00 18.700 -22 32 29.40 20.2 w F51 – Pan-STARRS 1, Haleakala MPS 608446
2015 06 07.30057 16 43 26.64 -21 46 21.1 19.7 V G96 – Mt. Lemmon Survey MPS 611413
2015 06 07.30580 16 43 26.32 -21 46 20.7 19.1 V G96 – Mt. Lemmon Survey MPS 611413
2015 06 07.31105 16 43 26.00 -21 46 19.7 18.8 V G96 – Mt. Lemmon Survey MPS 611413
2015 06 07.31629 16 43 25.64 -21 46 18.8 19.8 V G96 – Mt. Lemmon Survey MPS 611413
2015 06 11.27563 16 39 23.17 -21 34 36.0 20.1 r G45 – Space Surveillance Telescope, Atom Site MPS 611413
2015 06 11.30026 16 39 21.63 -21 34 32.1 20.9 r G45 – Space Surveillance Telescope, Atom Site MPS 611413
2015 06 11.31033 16 39 20.96 -21 34 29.7 20.3 r G45 – Space Surveillance Telescope, Atom Site MPS 611413
2015 06 11.32387 16 39 20.09 -21 34 27.0 19.8 r G45 – Space Surveillance Telescope, Atom Site MPS 611413
2015 06 11.36600 16 39 17.869 -21 34 18.19 19.7 w F51 – Pan-STARRS 1, Haleakala MPS 611413
2015 06 11.36665 16 39 17.827 -21 34 18.05 19.7 w F51 – Pan-STARRS 1, Haleakala MPS 611413
2015 06 11.37809 16 39 17.090 -21 34 16.12 19.7 w F51 – Pan-STARRS 1, Haleakala MPS 611413
2015 06 11.37875 16 39 17.050 -21 34 15.92 19.7 w F51 – Pan-STARRS 1, Haleakala MPS 611413
2015 06 11.39016 16 39 16.314 -21 34 14.05 19.7 w F51 – Pan-STARRS 1, Haleakala MPS 611413
2015 06 11.39082 16 39 16.272 -21 34 13.83 19.8 w F51 – Pan-STARRS 1, Haleakala MPS 611413
2015 06 11.40225 16 39 15.534 -21 34 11.88 19.6 w F51 – Pan-STARRS 1, Haleakala MPS 611413
2015 06 11.40291 16 39 15.495 -21 34 11.71 19.7 w F51 – Pan-STARRS 1, Haleakala MPS 611413
2015 06 13.21280 16 37 27.02 -21 28 50.4 20.3 R 926 – Tenagra II Observatory, Nogales MPS 611413
2015 06 13.22249 16 37 26.41 -21 28 48.0 20.2 R 926 – Tenagra II Observatory, Nogales MPS 611413
2015 06 13.23220 16 37 25.78 -21 28 46.3 20.1 R 926 – Tenagra II Observatory, Nogales MPS 611413
2015 06 13.40853 16 37 15.125 -21 28 13.98 19.4 w F51 – Pan-STARRS 1, Haleakala MPS 612476
2015 06 13.42061 16 37 14.399 -21 28 11.88 19.5 w F51 – Pan-STARRS 1, Haleakala MPS 612476
2015 07 09.34714 16 19 47.008 -20 28 11.11 20.4 w F51 – Pan-STARRS 1, Haleakala MPS 615074
2015 07 09.35908 16 19 46.792 -20 28 10.23 20.4 w F51 – Pan-STARRS 1, Haleakala MPS 615074
2015 07 09.37076 16 19 46.573 -20 28 09.33 20.4 w F51 – Pan-STARRS 1, Haleakala MPS 615074
2015 08 06.28749 16 28 20.786 -20 35 49.33 21.0 w F51 – Pan-STARRS 1, Haleakala MPS 619639
2015 08 06.29918 16 28 21.337 -20 35 50.26 21.0 w F51 – Pan-STARRS 1, Haleakala MPS 619639
2015 08 06.31086 16 28 21.876 -20 35 51.45 20.9 w F51 – Pan-STARRS 1, Haleakala MPS 619639
2015 08 06.32261 16 28 22.437 -20 35 52.32 21.2 w F51 – Pan-STARRS 1, Haleakala MPS 619639
2018 03 19.35409 11 39 34.06 +00 07 33.9 22.3 G G96 – Mt. Lemmon Survey MPS 878472
